Starlink 35817

operational
NORAD ID: 66373 Int'l Des: 2025-254 Owner: SPXS Country: US Constellation: starlink
LEOCIRCULAR

About Starlink 35817

Description loading...

Live Position

Loading 3D Globe...

Upcoming Passes

Altitude History

Altitude vs Time

uPlot chart will show altitude changes over time

Two-Line Element Set

1 66373C 25254K 25311.11298611 .00531370 00000+0 78954-3 0 3116
2 66373 53.1603 93.7473 0009176 265.6865 91.2020 16.03518490 11
Epoch: Nov 7, 2025 • Age: 18 hours

Current Status

Altitude 263.6 km
Velocity 7.75 km/s
Sub-Earth Point 3.59°N, 55.66°W
Launch Date Nov 6, 2025
Age 1 days
Type internet

Technical Details

Classification Payload
Mass 575.00 kg
Dry Mass 530.00 kg
Total Mass 575.00 kg
Length 0.30 m
Diameter 4.10 m
Span 29.00 m
Shape Box + pan
Manufacturer SPXS
Bus Type Starlink V2MO
Phase Status In Orbit
Owner/State SPXS/US

Large Constellations

Loading constellations...